Worland, WY

5:08 PM MST on February 20, 2018 (GMT -0700)
Worland Municipal

Weather History for KWRL - December, 2013

Change the Weather History Date:

Saturday, December 14, 2013

  Actual Average Record
Temperature  
Mean Temperature 23 °F 17 °F  
Max Temperature 37 °F 30 °F 57 °F (2003)
Min Temperature 8 °F 4 °F -20 °F (1972)
Degree Days  
Heating Degree Days 42 48  
Month to date heating degree days 765 641  
Since 1 July heating degree days 2621 2533  
Cooling Degree Days 0 0  
Month to date cooling degree days 0 0  
Year to date cooling degree days 852 535  
Moisture  
Dew Point 15 °F    
Average Humidity 70    
Maximum Humidity 92    
Minimum Humidity 47    
Precipitation  
Precipitation 0.00 in 0.01 in 0.28 in (1989)
Month to date precipitation T 0.11  
Year to date precipitation 7.74 7.45  
Sea Level Pressure  
Sea Level Pressure 30.35 in    
Wind  
Wind Speed 3 mph (SSW)    
Max Wind Speed 9 mph    
Max Gust Speed 11 mph    
Visibility 10 miles    
Events      
T = Trace of Precipitation, MM = Missing Value Source: NWS Daily Summary

Daily Weather History Graph

Daily Weather History Graph

Search for Another Location

Airport or City:

Trip Planner

Search our weather history database for the weather conditions in past years. The results will help you decide how hot, cold, wet, or windy it might be!

Date:

Astronomy

Dec. 14, 2013 Rise Set
Actual Time 7:38 AM MST 4:34 PM MST
Civil Twilight 7:05 AM MST 5:07 PM MST
Nautical Twilight 6:29 AM MST 5:43 PM MST
Astronomical Twilight 5:54 AM MST 6:18 PM MST
Moon 3:01 PM MST (12/14) 4:58 AM MST (12/14)
Length of Visible Light 10h 01m
Length of Day
8h 55m
Waxing Gibbous, 94% of the Moon is Illuminated
Dec 14
Waxing Gibbous
Dec 17
Full
Dec 25
Last Quarter
Jan 1
New
Jan 7
First Quarter

Hourly Weather History & Observations

Time (MST) Temp. Windchill Dew Point Humidity Pressure Visibility Wind Dir Wind Speed Gust Speed Precip Events Conditions
12:53 AM 21.9 °F 15.7 °F 18.0 °F 85% 30.34 in 10.0 mi SW 4.6 mph - N/A   Overcast
1:53 AM 19.9 °F 13.4 °F 16.0 °F 85% 30.34 in 10.0 mi SSW 4.6 mph - N/A   Overcast
2:53 AM 16.0 °F 6.3 °F 12.9 °F 88% 30.37 in 10.0 mi SSW 6.9 mph - N/A   Mostly Cloudy
3:53 AM 15.1 °F 6.4 °F 12.0 °F 88% 30.35 in 10.0 mi SSW 5.8 mph - N/A   Clear
4:53 AM 12.9 °F 2.6 °F 10.0 °F 88% 30.40 in 10.0 mi SW 6.9 mph - N/A   Clear
5:53 AM 12.0 °F 1.5 °F 9.0 °F 88% 30.41 in 10.0 mi SSW 6.9 mph - N/A   Clear
6:53 AM 12.0 °F 5.9 °F 8.1 °F 84% 30.40 in 10.0 mi SW 3.5 mph - N/A   Clear
7:53 AM 12.9 °F 2.6 °F 9.0 °F 84% 30.40 in 10.0 mi South 6.9 mph - N/A   Clear
8:53 AM 18.0 °F - 12.0 °F 78% 30.38 in 10.0 mi Calm Calm - N/A   Clear
9:53 AM 19.0 °F - 12.9 °F 77% 30.40 in 10.0 mi Calm Calm - N/A   Clear
10:53 AM 23.0 °F 17.0 °F 14.0 °F 68% 30.38 in 10.0 mi South 4.6 mph - N/A   Clear
11:53 AM 28.0 °F - 16.0 °F 61% 30.32 in 10.0 mi Calm Calm - N/A   Clear
12:53 PM 30.9 °F 25.2 °F 18.0 °F 59% 30.31 in 10.0 mi WSW 5.8 mph - N/A   Clear
1:53 PM 34.0 °F - 16.0 °F 48% 30.30 in 10.0 mi Calm Calm - N/A   Clear
2:53 PM 36.0 °F 33.3 °F 18.0 °F 48% 30.30 in 10.0 mi South 3.5 mph - N/A   Clear
3:53 PM 36.0 °F - 19.9 °F 52% 30.30 in 10.0 mi Calm Calm - N/A   Clear
4:53 PM 27.0 °F - 19.9 °F 75% 30.34 in 10.0 mi Calm Calm - N/A   Clear
5:53 PM 24.1 °F - 18.0 °F 77% 30.36 in 10.0 mi Calm Calm - N/A   Partly Cloudy
6:53 PM 24.1 °F 17.0 °F 18.0 °F 77% 30.37 in 10.0 mi SE 5.8 mph - N/A   Mostly Cloudy
7:53 PM 21.9 °F 17.2 °F 17.1 °F 82% 30.37 in 10.0 mi South 3.5 mph - N/A   Overcast
8:53 PM 25.0 °F 15.5 °F 19.0 °F 78% 30.33 in 10.0 mi SSE 9.2 mph - N/A   Overcast
9:53 PM 21.9 °F - 17.1 °F 82% 30.33 in 10.0 mi Calm Calm - N/A   Partly Cloudy
10:53 PM 15.1 °F - 12.0 °F 88% 30.34 in 10.0 mi Calm Calm - N/A   Partly Cloudy
11:53 PM 21.0 °F - 15.1 °F 78% 30.29 in 10.0 mi Calm Calm - N/A   Clear